sat.trackr.live / text

‹ back to catalog

STARLINK-4218

NORAD 53025 · 2022-076AR

PAYLOAD ACTIVE UNKNOWN

§ Identity

Operator
Country
US
Launch date
2022-07-07
Launch site
AFETR
Launch vehicle
Mass (kg)
RCS (m²)

Purposes: comms

External: N2YO · Heavens-Above · Gunter

§ Orbital elements

Epoch: 2026-05-25T03:56:50.047296Z

Period
95.44 min
Inclination
53.2133°
Eccentricity
0.0001304
Mean motion
15.08837332 rev/d
Perigee alt
538.8 km
Apogee alt
540.7 km
Semi-major
6,917.9 km
B*
2.8089e-5
RAAN
100.8105°
Arg perigee
72.5201°
Mean anomaly
287.5933°
Rev number
21,453

§ Raw data

STARLINK-42181 53025U 22076AR  26145.16446814  .00000159  00000+0  28089-4 0  99992 53025  53.2133 100.8105 0001304  72.5201 287.5933 15.08837332214536

JSON: /api/v1/satellites/53025 · /tle

For live sub-satellite position, see the globe view (requires WebGL).

§ Visibility from observer

Set your observer location to see the next 7 days of passes ≥ 10°. The values pass through the URL so the page stays shareable.

No JS? Fill the form by hand. The geolocation button needs JavaScript.